Location: Warner Observatory
(35.1353°N, 89.5455°W)
Time: 21:59:08
(UTC-06:00)

Amateur Radio Satellites - All Passes

Search period start: 27 November 2014 21:29
Search period end: 28 November 2014 21:29
Location: Warner Observatory, 35.1353°N, 89.5455°W

Satellite Date Start Highest point End Downlink Frequencies (MHz)
Time Altitude Azimuth
TIGRISAT 27 Nov 21:28:54 21:30:35 12° 93° (E) 21:32:18 435.000
CANX-2 27 Nov 21:32:10 21:33:03 11° 268° (W) 21:33:56 2200.000
HUMSAT D 27 Nov 21:37:01 21:41:05 58° 75° (ENE) 21:45:07 437.325/437.525
UWE-3 27 Nov 21:38:09 21:42:22 64° 259° (W) 21:46:31 435.000/436.395/437.385
DX 1 27 Nov 21:38:38 21:42:36 33° 262° (W) 21:46:35 434.975-435.025
JUGNU 27 Nov 21:39:39 21:41:24 11° 166° (SSE) 21:43:10 437.505
CUBEBUG 2 27 Nov 21:42:14 21:46:22 48° 260° (W) 21:50:25 437.445
UNISAT 6 27 Nov 21:42:25 21:45:32 18° 95° (E) 21:48:40 437.425
DOVE 4 27 Nov 22:03:16 22:04:47 11° 267° (W) 22:06:16 437.250
POLYITAN 1 27 Nov 22:06:13 22:09:28 21° 96° (E) 22:12:43 437.675
QB50P2 27 Nov 22:07:22 22:10:41 22° 96° (E) 22:13:59 145.880/145.840
ZACube-1 27 Nov 22:09:15 22:13:01 31° 262° (W) 22:16:45 437.345
ANTELSAT 27 Nov 22:10:30 22:14:43 38° 99° (E) 22:18:59 437.575/2403.000
DUCHIFAT 1 27 Nov 22:11:57 22:15:24 24° 96° (E) 22:18:50 145.980
TISAT 1 27 Nov 22:15:44 22:17:45 13° 66° (ENE) 22:19:45 437.305
VELOX 1 27 Nov 22:16:57 22:21:13 43° 261° (W) 22:25:29 145.980
ESTCUBE 1 27 Nov 22:22:25 22:26:57 74° 76° (ENE) 22:31:30 437.505/2401.250
CINEMA 3 27 Nov 22:25:22 22:25:49 10° 268° (W) 22:26:15 145.822/145.860
ISS 27 Nov 22:26:18 22:29:31 54° 320° (NW) 22:32:45 145.825
SPROUT 27 Nov 22:30:59 22:33:49 17° 68° (ENE) 22:36:40 437.525
NANOSAT C BR1 27 Nov 22:31:15 22:35:16 42° 99° (E) 22:39:16 145.865
QB50P1 27 Nov 22:41:20 22:45:30 57° 101° (E) 22:49:39 145.935-145.965
BUGSAT 1 27 Nov 22:41:30 22:45:24 44° 99° (E) 22:49:15 437.445
AISAT 27 Nov 22:45:33 22:48:56 21° 265° (W) 22:52:19 437.250
FUNcube-1 27 Nov 22:45:59 22:47:44 12° 267° (W) 22:49:29 145.935
50 SAT 27 Nov 22:48:43 22:51:48 21° 264° (W) 22:54:54 437.505
CUBEBUG 1 27 Nov 22:49:36 22:53:57 55° 260° (W) 22:58:19 437.445
TIGRISAT 27 Nov 23:03:13 23:07:34 52° 286° (WNW) 23:11:59 435.000
POPSAT HIP 1 27 Nov 23:06:25 23:10:37 69° 284° (WNW) 23:14:48 437.405
CUSAT 1 27 Nov 23:08:35 23:13:36 50° 81° (E) 23:20:12 437.405
UNISAT 6 27 Nov 23:18:17 23:22:22 35° 288° (WNW) 23:26:30 437.425
JUGNU 27 Nov 23:25:57 23:29:39 17° 176° (S) 23:33:23 437.505
AUBIESAT-1 27 Nov 23:37:15 23:40:38 25° 64° (ENE) 23:44:16 437.475
RS-15 27 Nov 23:40:21 23:50:45 40° 48° (NE) 00:01:29 29.354- 29.394
SRMSAT 27 Nov 23:41:16 23:44:15 14° 169° (S) 23:47:15 437.500
POLYITAN 1 27 Nov 23:41:51 23:45:21 26° 289° (WNW) 23:48:52 437.675
QB50P2 27 Nov 23:43:03 23:46:31 25° 290° (WNW) 23:49:59 145.880/145.840
DANDE 27 Nov 23:43:28 23:48:28 87° 83° (E) 23:55:16 436.750
M-CUBED/EXP-1 PRIME 27 Nov 23:43:39 23:47:18 32° 66° (ENE) 23:51:15 437.505
DUCHIFAT 1 27 Nov 23:47:51 23:51:08 23° 290° (WNW) 23:54:25 145.980
ANTELSAT 27 Nov 23:48:16 23:51:12 17° 292° (WNW) 23:54:11 437.575/2403.000
MaSat-1 27 Nov 23:48:37 23:50:40 26° 64° (ENE) 23:52:47 437.345
TISAT 1 27 Nov 23:49:04 23:53:10 45° 260° (W) 23:57:16 437.305
ITUPSAT 1 27 Nov 23:57:21 00:01:23 27° 69° (ENE) 00:05:25 437.325
SPROUT 28 Nov 00:05:41 00:09:37 34° 262° (W) 00:13:34 437.525
SWISSCUBE 28 Nov 00:07:00 00:11:25 38° 71° (ENE) 00:15:51 437.505
NANOSAT C BR1 28 Nov 00:08:39 00:10:46 14° 293° (WNW) 00:12:52 145.865
BUGSAT 1 28 Nov 00:18:56 00:20:28 12° 294° (WNW) 00:21:59 437.445
QB50P1 28 Nov 00:20:13 00:20:52 10° 295° (WNW) 00:21:31 145.935-145.965
YUBILEINY 28 Nov 00:25:16 00:29:20 14° 78° (ENE) 00:33:22 435.215
KKS-1 28 Nov 00:32:56 00:34:33 12° 65° (ENE) 00:36:09 437.445
BEESAT 28 Nov 00:37:11 00:41:57 75° 75° (ENE) 00:46:46 436.000
CUSAT 1 28 Nov 00:52:48 00:56:39 20° 267° (W) 01:01:12 437.405
AUBIESAT-1 28 Nov 01:12:16 01:15:32 24° 261° (W) 01:19:03 437.475
JUGNU 28 Nov 01:14:22 01:17:57 17° 186° (S) 01:21:34 437.505
Oscar 19 28 Nov 01:15:42 01:20:48 57° 101° (E) 01:25:52 437.125/150
M-CUBED/EXP-1 PRIME 28 Nov 01:19:40 01:22:27 18° 263° (W) 01:25:24 437.505
Gurwin Techsat 1B 28 Nov 01:21:32 01:23:30 12° 91° (E) 01:25:28 435.225
STARS 28 Nov 01:21:47 01:25:31 28° 70° (ENE) 01:29:16 437.465
SRMSAT 28 Nov 01:28:46 01:32:42 18° 179° (S) 01:36:39 437.500
ITUPSAT 1 28 Nov 01:35:08 01:39:10 27° 264° (W) 01:43:13 437.325
SWISSCUBE 28 Nov 01:46:00 01:49:22 19° 266° (W) 01:52:44 437.505
RS-15 28 Nov 01:52:31 02:03:29 58° 249° (WSW) 02:14:57 29.354- 29.394
KKS-1 28 Nov 02:06:18 02:10:40 56° 259° (W) 02:15:03 437.445
ITAMSAT 1 28 Nov 02:13:35 02:18:46 78° 103° (ESE) 02:23:55 435.822/435.867
YUBILEINY 28 Nov 02:15:56 02:24:45 87° 95° (E) 02:33:34 435.215
SO-50 28 Nov 02:27:35 02:31:54 52° 115° (ESE) 02:36:23 436.795
Oscar 19 28 Nov 02:56:40 02:59:37 16° 295° (WNW) 03:02:35 437.125/150
STARS 28 Nov 02:58:35 03:01:58 22° 264° (W) 03:05:21 437.465
Gurwin Techsat 1B 28 Nov 02:58:36 03:03:53 68° 286° (WNW) 03:09:08 435.225
AO-7 28 Nov 03:17:01 03:24:11 31° 98° (E) 03:31:16 29.400- 29.500
SRMSAT 28 Nov 03:17:53 03:21:10 15° 189° (S) 03:24:27 437.500
HORYU 2 28 Nov 03:18:57 03:23:28 90° 283° (WNW) 03:27:58 437.375
MOZHAYETS 4 28 Nov 03:27:23 03:31:06 25° 70° (ENE) 03:34:51
BEESAT 3 28 Nov 03:36:56 03:39:59 19° 51° (NE) 03:43:00 437.485
JAS-2 28 Nov 03:40:46 03:42:18 11° 85° (E) 03:43:47 435.910
PCSat 28 Nov 03:53:08 03:58:13 39° 58° (ENE) 04:03:15 145.827
BEESAT 2 28 Nov 03:53:55 03:57:27 25° 53° (NE) 04:00:56 435.950
ITAMSAT 1 28 Nov 03:55:58 03:57:33 11° 298° (WNW) 03:59:07 435.822/435.867
SO-50 28 Nov 04:09:51 04:12:46 17° 313° (NW) 04:15:46 436.795
YUBILEINY 28 Nov 04:17:28 04:22:38 17° 294° (WNW) 04:27:50 435.215
AIST 2 28 Nov 04:38:19 04:42:18 36° 56° (NE) 04:46:14 435.215
ISS 28 Nov 04:57:23 05:00:29 37° 37° (NE) 05:03:34 145.825
STRAND 1 28 Nov 05:03:48 05:07:33 21° 67° (ENE) 05:11:19 437.568
MOZHAYETS 4 28 Nov 05:04:21 05:08:12 26° 264° (W) 05:12:05
AO-7 28 Nov 05:09:07 05:17:08 53° 293° (WNW) 05:25:08 29.400- 29.500
O/OREOS (USA 219) 28 Nov 05:11:41 05:16:10 86° 109° (ESE) 05:20:40 437.305
Cubesat XI-IV 28 Nov 05:11:49 05:15:15 17° 93° (E) 05:18:40 437.490
BEESAT 3 28 Nov 05:14:29 05:18:18 35° 247° (WSW) 05:22:03 437.485
CUBESAT XI-V 28 Nov 05:15:12 05:19:02 25° 70° (ENE) 05:22:54 437.345
JAS-2 28 Nov 05:21:32 05:28:26 89° 284° (WNW) 05:34:27 435.910
PRISM 28 Nov 05:25:03 05:29:15 85° 257° (WSW) 05:33:31 437.425
BEESAT 2 28 Nov 05:32:12 05:35:38 25° 249° (WSW) 05:39:02 435.950
PCSat 28 Nov 05:37:05 05:41:21 24° 253° (WSW) 05:45:36 145.827
CUTE-I 28 Nov 05:51:15 05:56:17 43° 99° (E) 06:01:17 437.470
AIST 1 28 Nov 05:55:53 05:59:50 32° 78° (ENE) 06:03:43
GONETS M04 28 Nov 06:14:45 06:19:43 17° 79° (E) 06:24:40
AIST 2 28 Nov 06:17:47 06:20:38 18° 251° (WSW) 06:23:27 435.215
ISS 28 Nov 06:34:42 06:36:53 17° 232° (SW) 06:39:04 145.825
STRAND 1 28 Nov 06:41:36 06:46:25 40° 261° (W) 06:51:16 437.568
Cubesat XI-IV 28 Nov 06:50:27 06:55:34 49° 288° (WNW) 07:00:39 437.490
CUBESAT XI-V 28 Nov 06:52:19 06:56:20 28° 264° (W) 07:00:23 437.345
JAS-2 28 Nov 07:09:14 07:12:14 13° 303° (WNW) 07:15:06 435.910
CUTE-I 28 Nov 07:32:09 07:36:01 21° 294° (WNW) 07:39:52 437.470
AIST 1 28 Nov 07:34:28 07:37:10 16° 273° (W) 07:39:51
CANX-2 28 Nov 07:43:53 07:45:20 12° 92° (E) 07:46:47 2200.000
GONETS M04 28 Nov 08:06:29 08:15:17 84° 276° (W) 08:24:12
CUTE 1.7 + AOD 2 28 Nov 08:16:16 08:19:54 26° 96° (E) 08:23:32 437.475
BRITE-PL 28 Nov 08:21:34 08:25:12 28° 97° (E) 08:28:55 437.365/2234.400
DOVE 4 28 Nov 08:25:38 08:28:22 17° 95° (E) 08:31:11 437.250
UNISAT 6 28 Nov 08:41:13 08:42:12 11° 65° (ENE) 08:43:10 437.425
CINEMA 3 28 Nov 08:43:16 08:45:55 16° 94° (E) 08:48:37 145.822/145.860
HO-68 28 Nov 08:43:23 08:50:29 61° 103° (ESE) 08:57:31 435.675
SEEDS 28 Nov 08:45:39 08:49:50 52° 100° (E) 08:54:00 437.485
DELFI C3 28 Nov 08:51:07 08:53:47 17° 94° (E) 08:56:27 145.870
UKube-1 28 Nov 08:52:55 08:55:52 18° 95° (E) 08:58:47 .
AAUSAT CUBESAT 2 28 Nov 08:57:24 09:01:33 52° 100° (E) 09:05:41 437.432
POLYITAN 1 28 Nov 08:58:36 09:00:11 12° 66° (ENE) 09:01:45 437.675
QB50P2 28 Nov 08:59:27 09:01:09 12° 66° (ENE) 09:02:51 145.880/145.840
Oscar 11 28 Nov 09:01:36 09:05:21 27° 97° (E) 09:09:04 145.826/435.025
FUNcube-1 28 Nov 09:01:45 09:02:34 10° 92° (E) 09:03:23 145.935
DUCHIFAT 1 28 Nov 09:03:24 09:05:28 13° 67° (ENE) 09:07:31 145.980
ANTELSAT 28 Nov 09:07:42 09:11:01 23° 70° (ENE) 09:14:21 437.575/2403.000
COMPASS 1 28 Nov 09:14:25 09:18:40 83° 283° (WNW) 09:22:56 437.405
CANX-2 28 Nov 09:17:21 09:21:30 49° 286° (WNW) 09:25:39 2200.000
GOMX 1 28 Nov 09:17:57 09:22:08 82° 283° (WNW) 09:26:30 467.674
NANOSAT C BR1 28 Nov 09:21:52 09:25:10 22° 70° (ENE) 09:28:27 145.865
HUMSAT D 28 Nov 09:26:52 09:28:37 12° 93° (E) 09:30:23 437.325/437.525
BUGSAT 1 28 Nov 09:29:21 09:32:39 22° 70° (ENE) 09:35:56 437.445
DX 1 28 Nov 09:29:59 09:34:13 51° 100° (E) 09:38:25 434.975-435.025
UWE-3 28 Nov 09:31:34 09:35:23 30° 98° (E) 09:39:16 435.000/436.395/437.385
QB50P1 28 Nov 09:31:42 09:35:22 29° 71° (ENE) 09:39:02 145.935-145.965
CUBEBUG 2 28 Nov 09:36:27 09:40:32 41° 99° (E) 09:44:42 437.445
CUTE 1.7 + AOD 2 28 Nov 09:52:22 09:55:40 22° 290° (WNW) 09:58:58 437.475
POPSAT HIP 1 28 Nov 09:56:17 10:00:27 57° 75° (ENE) 10:04:38 437.405
TIGRISAT 28 Nov 09:59:04 10:03:20 88° 258° (WSW) 10:07:36 435.000
ZACube-1 28 Nov 10:00:37 10:04:50 58° 101° (E) 10:09:08 437.345
BRITE-PL 28 Nov 10:00:40 10:03:33 18° 291° (WNW) 10:06:28 437.365/2234.400
DOVE 4 28 Nov 10:02:25 10:06:12 33° 287° (WNW) 10:10:07 437.250
GONETS M04 28 Nov 10:08:59 10:13:25 15° 296° (WNW) 10:17:53
VELOX 1 28 Nov 10:11:05 10:15:18 44° 99° (E) 10:19:29 145.980
UNISAT 6 28 Nov 10:14:18 10:18:29 56° 260° (W) 10:22:41 437.425
CINEMA 3 28 Nov 10:19:17 10:23:11 36° 287° (WNW) 10:27:14 145.822/145.860
ESTCUBE 1 28 Nov 10:19:38 10:22:57 20° 95° (E) 10:26:15 437.505/2401.250
SEEDS 28 Nov 10:23:39 10:25:11 12° 294° (WNW) 10:26:44 437.485
DELFI C3 28 Nov 10:25:27 10:29:08 32° 288° (WNW) 10:32:48 145.870
UKube-1 28 Nov 10:28:11 10:32:04 33° 289° (WNW) 10:35:55 .
POLYITAN 1 28 Nov 10:31:32 10:35:40 50° 260° (W) 10:39:48 437.675
50 SAT 28 Nov 10:31:44 10:35:47 65° 101° (E) 10:39:51 437.505
HO-68 28 Nov 10:32:15 10:37:36 23° 299° (WNW) 10:42:57 435.675
QB50P2 28 Nov 10:32:30 10:36:37 49° 260° (W) 10:40:45 145.880/145.840
FUNcube-1 28 Nov 10:35:00 10:39:09 53° 285° (WNW) 10:43:24 145.935
AAUSAT CUBESAT 2 28 Nov 10:35:21 10:36:44 11° 294° (WNW) 10:38:08 437.432
DUCHIFAT 1 28 Nov 10:36:52 10:40:56 44° 261° (W) 10:45:00 145.980
Oscar 11 28 Nov 10:38:01 10:41:20 22° 291° (WNW) 10:44:39 145.826/435.025
AISAT 28 Nov 10:38:49 10:43:15 84° 284° (WNW) 10:47:39 437.250
CUBEBUG 1 28 Nov 10:42:20 10:46:17 33° 98° (E) 10:50:12 437.445
ANTELSAT 28 Nov 10:44:12 10:47:42 25° 264° (W) 10:51:13 437.575/2403.000
NANOSAT C BR1 28 Nov 10:57:21 11:00:54 25° 263° (W) 11:04:26 145.865
HUMSAT D 28 Nov 11:00:37 11:04:36 44° 286° (WNW) 11:08:37 437.325/437.525
SO-50 28 Nov 11:02:30 11:06:22 23° 51° (NE) 11:10:15 436.795
BUGSAT 1 28 Nov 11:04:27 11:08:00 25° 263° (W) 11:11:32 437.445
QB50P1 28 Nov 11:08:10 11:11:15 19° 265° (W) 11:14:20 145.935-145.965
DX 1 28 Nov 11:08:12 11:09:59 12° 295° (WNW) 11:11:46 434.975-435.025
UWE-3 28 Nov 11:08:40 11:11:43 19° 291° (WNW) 11:14:49 435.000/436.395/437.385
CUBEBUG 2 28 Nov 11:14:31 11:16:54 15° 292° (WNW) 11:19:19 437.445
TISAT 1 28 Nov 11:37:36 11:41:27 34° 98° (E) 11:45:15 437.305
ZACube-1 28 Nov 11:39:50 11:40:43 11° 294° (WNW) 11:41:36 437.345
VELOX 1 28 Nov 11:49:05 11:51:29 15° 294° (WNW) 11:53:54 145.980
SPROUT 28 Nov 11:55:29 11:59:39 50° 100° (E) 12:03:48 437.525
ESTCUBE 1 28 Nov 11:55:50 11:59:51 32° 289° (WNW) 12:03:50 437.505/2401.250
VERMONT LUNAR 28 Nov 11:56:06 11:59:00 23° 145° (SE) 12:01:56 437.305
PHONESAT 2.4 28 Nov 11:56:30 11:58:53 16° 143° (SE) 12:01:16 2401.200-2431.200
SWISSCUBE 28 Nov 12:12:44 12:14:45 13° 92° (E) 12:16:46 437.505
CUBEBUG 1 28 Nov 12:19:28 12:22:23 18° 292° (WNW) 12:25:17 437.445
CUSAT 1 28 Nov 12:20:29 12:23:10 67° 98° (E) 12:25:44 437.405
Oscar 19 28 Nov 12:29:25 12:34:25 59° 74° (ENE) 12:39:27 437.125/150
YUBILEINY 28 Nov 12:30:43 12:38:37 37° 75° (ENE) 12:46:25 435.215
Gurwin Techsat 1B 28 Nov 12:39:18 12:42:19 16° 64° (ENE) 12:45:20 435.225
BEESAT 28 Nov 12:41:34 12:45:29 25° 96° (E) 12:49:23 436.000
SO-50 28 Nov 12:42:29 12:47:03 40° 246° (WSW) 12:51:36 436.795
AUBIESAT-1 28 Nov 12:57:12 13:01:46 38° 102° (ESE) 13:06:07 437.475
DANDE 28 Nov 12:58:38 13:01:07 29° 281° (W) 13:03:27 436.750
M-CUBED/EXP-1 PRIME 28 Nov 13:04:12 13:09:00 51° 104° (ESE) 13:13:35 437.505
TISAT 1 28 Nov 13:14:20 13:16:59 17° 292° (WNW) 13:19:38 437.305
MaSat-1 28 Nov 13:14:30 13:15:46 12° 107° (ESE) 13:17:00 437.345
ITAMSAT 1 28 Nov 13:28:17 13:33:30 84° 76° (ENE) 13:38:44 435.822/435.867
PHONESAT 2.4 28 Nov 13:33:36 13:37:18 86° 156° (SSE) 13:41:02 2401.200-2431.200
SPROUT 28 Nov 13:33:38 13:35:16 12° 294° (WNW) 13:36:54 437.525
VERMONT LUNAR 28 Nov 13:33:39 13:37:15 71° 340° (NNW) 13:40:52 437.305
ITUPSAT 1 28 Nov 13:38:16 13:43:05 80° 284° (WNW) 13:47:51 437.325
SWISSCUBE 28 Nov 13:48:13 13:52:55 55° 286° (WNW) 13:57:34 437.505
KKS-1 28 Nov 14:01:03 14:05:06 34° 98° (E) 14:09:09 437.445
RS-15 28 Nov 14:01:41 14:10:45 31° 105° (ESE) 14:19:41 29.354- 29.394
Oscar 19 28 Nov 14:11:41 14:14:05 13° 268° (W) 14:16:30 437.125/150
AO-7 28 Nov 14:12:51 14:19:55 33° 61° (ENE) 14:27:01 29.400- 29.500
HORYU 2 28 Nov 14:14:25 14:18:44 55° 74° (ENE) 14:23:04 437.375
Gurwin Techsat 1B 28 Nov 14:16:30 14:21:44 59° 259° (W) 14:26:59 435.225
BEESAT 28 Nov 14:19:10 14:23:16 29° 290° (WNW) 14:27:20 436.000
YUBILEINY 28 Nov 14:27:24 14:35:21 42° 272° (W) 14:43:17 435.215
AUBIESAT-1 28 Nov 14:32:44 14:36:25 22° 297° (WNW) 14:40:00 437.475
M-CUBED/EXP-1 PRIME 28 Nov 14:40:24 14:43:33 17° 299° (WNW) 14:46:38 437.505
MaSat-1 28 Nov 14:47:54 14:50:02 18° 297° (WNW) 14:52:03 437.345
STARS 28 Nov 14:50:43 14:55:08 89° 107° (ESE) 14:59:31 437.465
VERMONT LUNAR 28 Nov 15:12:42 15:16:02 34° 356° (N) 15:19:23 437.305
PHONESAT 2.4 28 Nov 15:12:50 15:16:19 37° 353° (N) 15:19:49 2401.200-2431.200
O/OREOS (USA 219) 28 Nov 15:24:49 15:29:19 86° 251° (WSW) 15:33:48 437.305
JAS-2 28 Nov 15:28:20 15:35:00 34° 66° (ENE) 15:41:48 435.910
KKS-1 28 Nov 15:38:27 15:41:28 18° 292° (WNW) 15:44:29 437.445
HORYU 2 28 Nov 15:54:42 15:55:42 11° 268° (W) 15:56:42 437.375
AO-7 28 Nov 16:04:20 16:12:18 51° 258° (WSW) 16:20:21 29.400- 29.500
RS-15 28 Nov 16:11:23 16:22:15 64° 303° (WNW) 16:33:07 29.354- 29.394
Cubesat XI-IV 28 Nov 16:30:43 16:34:46 22° 66° (ENE) 16:38:49 437.490
VERMONT LUNAR 28 Nov 16:51:26 16:54:56 45° 14° (NNE) 16:58:26 437.305
PHONESAT 2.4 28 Nov 16:52:02 16:55:34 40° 10° (N) 16:59:06 2401.200-2431.200
MOZHAYETS 4 28 Nov 17:01:59 17:06:40 88° 283° (WNW) 17:11:18
CUTE-I 28 Nov 17:09:55 17:15:06 52° 73° (ENE) 17:20:17 437.470
JAS-2 28 Nov 17:12:21 17:19:38 49° 262° (W) 17:27:12 435.910
PRISM 28 Nov 17:12:44 17:15:36 18° 95° (E) 17:18:26 437.425
Cubesat XI-IV 28 Nov 18:09:31 18:14:33 41° 261° (W) 18:19:35 437.490
GONETS M04 28 Nov 18:21:14 18:29:29 42° 76° (ENE) 18:37:37
AIST 1 28 Nov 18:22:36 18:26:05 23° 89° (E) 18:29:36
VERMONT LUNAR 28 Nov 18:29:56 18:33:26 48° 209° (SSW) 18:36:56 437.305
RS-15 28 Nov 18:30:13 18:37:20 19° 331° (NNW) 18:44:33 29.354- 29.394
PHONESAT 2.4 28 Nov 18:30:49 18:34:31 69° 206° (SSW) 18:38:12 2401.200-2431.200
PCSat 28 Nov 18:31:13 18:36:35 70° 114° (ESE) 18:41:59 145.827
AIST 2 28 Nov 18:35:06 18:37:49 17° 109° (ESE) 18:40:34 435.215
PRISM 28 Nov 18:47:26 18:51:11 31° 289° (WNW) 18:54:53 437.425
CUBESAT XI-V 28 Nov 18:51:44 18:56:24 85° 283° (WNW) 19:01:01 437.345
CUTE-I 28 Nov 18:52:05 18:55:24 17° 267° (W) 18:58:44 437.470
STRAND 1 28 Nov 18:55:05 19:00:13 88° 104° (ESE) 19:05:18 437.568
BEESAT 3 28 Nov 19:05:58 19:10:02 84° 299° (WNW) 19:14:12 437.485
CUTE 1.7 + AOD 2 28 Nov 19:08:01 19:10:05 14° 67° (ENE) 19:12:09 437.475
HO-68 28 Nov 19:08:53 19:15:07 33° 65° (ENE) 19:21:22 435.675
BEESAT 2 28 Nov 19:23:59 19:28:01 58° 301° (WNW) 19:32:08 435.950
BRITE-PL 28 Nov 19:29:28 19:33:37 28° 72° (ENE) 19:37:31 437.365/2234.400
DOVE 4 28 Nov 19:29:49 19:31:54 13° 68° (ENE) 19:33:57 437.250
SEEDS 28 Nov 19:35:41 19:39:04 24° 70° (ENE) 19:42:28 437.485
CINEMA 3 28 Nov 19:44:49 19:45:33 10° 66° (ENE) 19:46:16 145.822/145.860
AAUSAT CUBESAT 2 28 Nov 19:46:24 19:49:44 24° 70° (ENE) 19:53:04 437.432
UKube-1 28 Nov 19:47:08 19:48:23 11° 64° (ENE) 19:49:37 .
Oscar 11 28 Nov 19:54:44 19:57:13 15° 67° (ENE) 19:59:43 145.826/435.025
AIST 1 28 Nov 20:00:05 20:03:37 24° 284° (WNW) 20:07:12
COMPASS 1 28 Nov 20:03:09 20:07:05 43° 74° (ENE) 20:11:03 437.405
CANX-2 28 Nov 20:07:07 20:11:19 77° 77° (ENE) 20:15:33 2200.000
PHONESAT 2.4 28 Nov 20:11:12 20:12:51 13° 219° (SW) 20:14:29 2401.200-2431.200
AIST 2 28 Nov 20:12:12 20:16:07 37° 304° (NW) 20:20:07 435.215
PCSat 28 Nov 20:17:14 20:20:30 16° 311° (NW) 20:23:48 145.827
GONETS M04 28 Nov 20:18:16 20:26:04 37° 274° (W) 20:33:50
GOMX 1 28 Nov 20:22:53 20:27:39 75° 77° (ENE) 20:32:07 467.674
DX 1 28 Nov 20:22:55 20:26:44 30° 71° (ENE) 20:30:33 434.975-435.025
UWE-3 28 Nov 20:27:14 20:30:00 17° 69° (ENE) 20:32:44 435.000/436.395/437.385
CUBEBUG 2 28 Nov 20:32:46 20:36:08 23° 71° (ENE) 20:39:28 437.445
CUTE 1.7 + AOD 2 28 Nov 20:41:36 20:45:36 43° 261° (W) 20:49:38 437.475
RS-15 28 Nov 20:52:36 20:56:31 12° 9° (N) 21:00:28 29.354- 29.394
ZACube-1 28 Nov 20:54:22 20:58:02 30° 72° (ENE) 21:01:40 437.345
HO-68 28 Nov 20:55:53 21:02:35 42° 260° (W) 21:09:21 435.675
DOVE 4 28 Nov 21:04:52 21:09:19 48° 260° (W) 21:13:33 437.250
VELOX 1 28 Nov 21:06:20 21:10:07 28° 70° (ENE) 21:13:54 145.980
BRITE-PL 28 Nov 21:07:54 21:12:02 26° 263° (W) 21:15:56 437.365/2234.400
DELFI C3 28 Nov 21:10:34 21:14:38 78° 259° (WSW) 21:18:44 145.870
SEEDS 28 Nov 21:11:31 21:14:48 22° 265° (W) 21:18:07 437.485
ESTCUBE 1 28 Nov 21:17:43 21:19:59 14° 66° (ENE) 21:22:16 437.505/2401.250
CINEMA 3 28 Nov 21:17:59 21:22:18 57° 259° (W) 21:26:29 145.822/145.860
50 SAT 28 Nov 21:18:07 21:21:30 27° 71° (ENE) 21:24:53 437.505
UKube-1 28 Nov 21:19:44 21:24:00 58° 259° (W) 21:28:19 .
AAUSAT CUBESAT 2 28 Nov 21:22:02 21:25:18 22° 265° (W) 21:28:36 437.432
JUGNU 28 Nov 21:24:14 21:26:28 12° 167° (SSE) 21:28:41 437.505
